User: anonymous   Login
Location: Unspecified
(0.0000°N, 0.0000°E)
Time: 01:04:57
(UTC+00:00)
Language:

MERIDIAN 6 - Orbit

View from above orbital plane
View from above orbital plane
View from above satellite
View from above satellite

Ground track
Ground track

The orbit data is extracted from the following two-line orbital elements,

1 38995U 12063A   21136.39805156  .00000217  00000-0  00000-0 0  9996
2 38995  65.3041 201.3856 6479402 255.8772 148.3905  2.00605770 62283
Epoch (UTC): 16 May 2021 09:33:11
Eccentricity: 0.6479402
inclination: 65.3041°
perigee height: 2971 km
apogee height: 37385 km
right ascension of ascending node: 201.3856°
argument of perigee: 255.8772°
revolutions per day: 2.00605770
mean anomaly at epoch: 148.3905°
orbit number at epoch: 6228

The dashed part of the orbit path shows where the satellite is in the earth's shadow,  

DLR